Flag for Germany Weather past 2 weeks in Vaihingen an der Enz, Baden-Württemberg, Germany

Now
61 °F

Light rain. Passing clouds.


Feels Like: 61 °F
Forecast: 46 / 64 °F
Wind: 3 mph from Northwest

Location: Stuttgart-Echterdingen

Current Time: Apr 27, 2015 at 12:05:19 AM

Latest Report: Apr 26, 2015 at 11:20 PM


Visibility: N/A

Pressure: 29.65 "Hg

Humidity: 77%

Dew point: 54 °F

Location of Vaihingen an der EnzLocation

Historic Weather in Vaihingen an der Enz — Graph

°F

Vaihingen an der Enz temperature yesterday

Maximum temperature yesterday: 70 °F (at 3:50 PM)
Minimum temperature yesterday: 52 °F (at 3:50 AM)
Average temperature yesterday: 61 °F

Past Weeks' High & Low Weather Summary

 TemperatureHumidityPressure
High77 °F (Apr 15, 3:20 PM)94% (Apr 25, 9:50 PM)30.42 "Hg (Apr 25, 9:50 PM)
Low32 °F (Apr 23, 6:20 AM)15% (Apr 15, 5:50 PM)29.65 "Hg (Apr 26, 6:50 PM)
Average54 °F57%30.13 "Hg
* Reported Apr 11 10:20 PM — Apr 26 10:20 PM, Vaihingen an der Enz, Weather by CustomWeather, © 2015

Note: Actual official high and low records may vary slightly from our data, if they occured in-between our weather recording intervals... More about our weather records

Advertising

Vaihingen an der Enz weather history for previous 24 hours

 ConditionsComfort  
Time TempWeatherWind HumidityBarometerVisibility
10:20 PM
Sun, Apr 26
63 °FPassing clouds.2 mph68%29.68 "HgN/A
9:50 PM63 °FSprinkles. Passing clouds.3 mph64%29.68 "HgN/A
9:20 PM63 °FSprinkles. Partly sunny.3 mph64%29.65 "HgN/A
8:50 PM63 °FPartly sunny.2 mph64%29.65 "HgN/A
8:20 PM64 °FBroken clouds.2 mph60%29.65 "HgN/A
7:50 PM66 °FPartly sunny.5 mph56%29.65 "HgN/A
7:20 PM68 °FPartly sunny.2 mph56%29.65 "HgN/A
6:50 PM68 °FPartly sunny.3 mph49%29.65 "HgN/A
6:20 PM68 °FPartly sunny.6 mph46%29.68 "HgN/A
5:50 PM68 °FBroken clouds.8 mph46%29.68 "HgN/A
5:20 PM68 °FBroken clouds.7 mph46%29.68 "HgN/A
4:50 PM68 °FBroken clouds.9 mph46%29.68 "HgN/A
4:20 PM68 °FBroken clouds.12 mph46%29.71 "HgN/A
3:50 PM70 °FPartly sunny.6 mph40%29.71 "HgN/A
3:20 PM68 °FPartly sunny.3 mph43%29.74 "HgN/A
2:50 PM66 °FBroken clouds.7 mph52%29.74 "HgN/A
2:20 PM66 °FBroken clouds.9 mph56%29.74 "HgN/A
1:50 PM68 °FBroken clouds.3 mph53%29.77 "HgN/A
1:20 PM66 °FBroken clouds.3 mph49%29.77 "HgN/A
12:50 PM68 °FScattered showers. Scattered clouds.5 mph53%29.77 "HgN/A
12:20 PM66 °FBroken clouds.6 mph49%29.80 "HgN/A
11:50 AM64 °FScattered clouds.5 mph52%29.80 "HgN/A
11:20 AM64 °FScattered clouds.3 mph56%29.80 "HgN/A
10:50 AM63 °FPassing clouds.5 mph59%29.80 "HgN/A
10:20 AM63 °FPassing clouds.3 mph59%29.83 "HgN/A
9:50 AM61 °FPassing clouds.5 mph68%29.83 "HgN/A
9:20 AM59 °FPassing clouds.5 mph77%29.83 "HgN/A
8:50 AM59 °FPassing clouds.5 mph77%29.83 "HgN/A
8:20 AM57 °FScattered clouds.1 mph77%29.83 "HgN/A
7:50 AM55 °FScattered clouds.1 mph82%29.83 "HgN/A
7:20 AM54 °FScattered clouds.1 mph88%29.83 "HgN/A
6:50 AM52 °FPassing clouds.2 mph88%29.83 "HgN/A
6:20 AM52 °FPassing clouds.3 mph88%29.83 "HgN/A
5:50 AM54 °FPassing clouds.1 mph88%29.83 "HgN/A
5:20 AM54 °FPartly cloudy.1 mph88%29.83 "HgN/A
4:50 AM52 °FClear.2 mph88%29.86 "Hg10 mi
4:20 AM54 °FClear.2 mph82%29.86 "Hg10 mi
3:50 AM52 °FClear.2 mph88%29.86 "Hg10 mi
3:20 AM54 °FPartly cloudy.2 mph82%29.86 "HgN/A
2:50 AM54 °FPartly cloudy.2 mph88%29.86 "HgN/A
2:20 AM54 °FLight rain. Partly cloudy.3 mph88%29.86 "HgN/A
1:50 AM54 °FPassing clouds.3 mph88%29.86 "HgN/A
1:20 AM55 °FPassing clouds.6 mph82%29.86 "HgN/A
12:50 AM55 °FPassing clouds.6 mph82%29.86 "HgN/A
12:20 AM55 °FPassing clouds.5 mph82%29.86 "HgN/A
Weather by CustomWeather, © 2015

See weather overviewHow to use our weather pages